www.pogodaiklimat.ru

Погода и климат >> Архив погоды >> Намибия >> Аэропорт Walvis Bay


ПОГОДА в Аэропорту Walvis Bay

  • Прогноз погоды в Аэропорту Walvis Bay
  • Монитор погоды в Аэропорту Walvis Bay

АРХИВ ПОГОДЫ в Аэропорту Walvis Bay

Время (UTC), дата Ветер
(напр.,м/с)
 
Видим.   Явления Облачность Т
(С)
Тd
(С)
f
(%)
Тe
(С)
Тes
(С)
Комфортность P
(гПа)
Po
(гПа)
Тmin
(С)
Tmax
(С)
R
(мм)
R24
(мм)
S
(см)
06 17.02 СВ 3 >70 км ясно +18.7 +15.6 82 +20 +22 1017.2 1006.5 +17.7
09 17.02 С 3 >70 км 1/1 600 м
[Sc]
+22.7 +16.3 67 +27 +39 душно 1017.8 1007.2 +17.7 +22.7
12 17.02 З 5 >70 км ясно +25.1 +15.8 56 +28 +38 жарко 1016.2 1005.7 +17.7 +25.6
15 17.02 З 7 >70 км ясно +23.8 +15.9 61 +27 +29 жарко 1014.1 1003.6 +23.7 +26.2
18 17.02 З 5 н/о н/о +19.6 +15.3 76 +21 +21 комфорт 1014.8 1004.1 +19.6 +26.2
21 17.02 СЗ 2 н/о н/о +18.5 +15.2 81 +20 +20 1016.6 1005.9 +18.5 +26.2
00 18.02 СЗ 3 н/о н/о +17.4 +15.2 87 +18 +18 1015.5 1004.7 +17.4 +26.2
03 18.02 З 1 30 км 10/10 200 м
[St]
+17.2 +15.3 89 +18 +18 1014.2 1003.5 +17.0 +26.2
06 18.02 СВ 3 >70 км 10/10 200 м
[Sc]
+17.2 +15.3 89 +17 +17 1014.9 1004.1 +17.0
12 18.02 СЗ 5 >70 км ясно +23.4 +15.5 61 +28 +39 душно 1013.4 1002.9 +17.0 +23.8
15 18.02 СЗ 5 >70 км ясно +22.7 +15.9 65 +27 +30 душно 1012.1 1001.6 +22.7 +24.2
18 18.02 С 2 >70 км 4/4 300 м
[Sc]
+19.6 +15.5 77 +22 +22 комфорт 1012.5 1001.9 +19.6 +24.2
21 18.02 СЗ 3 н/о н/о +18.0 +15.4 85 +18 +18 1013.5 1002.8 +17.9 +24.2
00 19.02 СЗ 2 н/о н/о +17.4 +15.2 87 +18 +18 1012.5 1001.8 +17.4 +24.2
03 19.02 С 1 30 км 10/10 200 м
[St]
+17.1 +15.1 88 +18 +18 1011.3 1000.6 +17.1 +24.2
06 19.02 СВ 3 >70 км 10/10 300 м
[St]
+18.2 +15.8 86 +19 +19 1011.9 1001.2 +17.1
09 19.02 С 4 >70 км 1/1 600 м
[Sc]
+22.1 +16.2 69 +26 +36 душно 1012.7 1002.1 +17.1 +22.1
12 19.02 СЗ 5 >70 км ясно +23.7 +16.3 63 +27 +39 жарко 1011.2 1000.7 +17.1 +23.9
18 19.02 С 3 н/о н/о +19.1 +15.2 78 +21 +21 комфорт 1010.2 999.6 +19.1 +25.2
21 19.02 С 3 н/о н/о +18.0 +15.1 83 +18 +18 1012.4 1001.7 +18.0 +25.2
00 20.02 С 3 н/о н/о +17.9 +15.5 86 +18 +18 1011.7 1001.0 +17.7 +25.2
03 20.02 СВ 2 30 км 10/10 300 м
[Sc]
+17.8 +15.6 87 +18 +18 1011.6 1000.9 +17.6 +25.2
06 20.02 С 4 >70 км 10/10 300 м
[Sc]
+18.6 +15.7 83 +19 +19 1013.0 1002.3 +17.6
09 20.02 СЗ 3 >70 км ясно +22.9 +15.6 63 +27 +40 душно 1013.4 1002.9 +17.6 +23.3
12 20.02 СЗ 5 >70 км ясно +25.1 +15.5 55 +28 +38 жарко 1012.3 1001.9 +17.6 +25.4
15 20.02 СЗ 4 >70 км ясно +23.7 +15.6 60 +27 +31 жарко 1011.1 1000.6 +23.7 +25.8
18 20.02 СЗ 4 >70 км ясно +20.8 +15.2 70 +24 +24 комфорт 1012.3 1001.7 +20.8 +25.8
21 20.02 СЗ 4 н/о н/о +18.7 +15.6 82 +20 +20 1013.5 1002.8 +18.7 +25.8
00 21.02 С 3 н/о н/о +18.3 +15.7 85 +19 +19 1013.5 1002.8 +18.1 +25.8
03 21.02 С 2 н/о н/о +18.1 +15.7 86 +19 +19 1013.4 1002.7 +18.1 +25.8
06 21.02 СВ 3 >70 км 10/10 300 м
[Sc]
+18.9 +16.1 84 +20 +20 1015.0 1004.3 +18.1
09 21.02 СЗ 1 н/о н/о +26.0 +16.7 57 +30 +30 душно 1014.6 1004.2 +18.1 +26.0
12 21.02 З 5 >70 км ясно +29.8 +16.5 45 +33 +45 душно 1012.8 1002.5 +18.1 +30.5
15 21.02 З 6 >70 км ясно +29.1 +15.1 43 +32 +34 душно 1010.5 1000.2 +28.4 +30.6
18 21.02 З 3 >70 км ясно +24.5 +16.3 60 +28 +28 душно 1010.8 1000.4 +24.4 +30.6
21 21.02 С 4 н/о н/о +20.4 +17.0 81 +24 +24 комфорт 1012.4 1001.8 +20.4 +30.6
00 22.02 С 3 н/о н/о +19.6 +17.2 86 +22 +22 комфорт 1012.7 1002.1 +19.6 +30.6
03 22.02 СВ 4 >70 км 10/10 300 м
[St]
+19.5 +17.1 86 +22 +22 комфорт 1012.7 1002.1 +19.4 +30.6
06 22.02 С 4 >70 км 10/10 300 м
[St]
+20.1 +17.1 83 +23 +23 комфорт 1014.3 1003.7 +19.4
09 22.02 С 4 >70 км ясно +24.7 +18.0 66 +29 +39 душно 1015.2 1004.7 +19.4 +24.7
12 22.02 СЗ 6 >70 км 6/0 2000 м
[Ac cast]
+24.7 +17.5 64 +29 +33 душно 1014.7 1004.2 +19.4 +25.1
15 22.02 СЗ 5 >70 км 3/0 2000 м
[Ac cast]
+23.2 +16.8 67 +28 +31 душно 1013.2 1002.7 +23.2 +25.1
18 22.02 С 4 н/о н/о +20.7 +16.5 77 +24 +24 комфорт 1014.0 1003.4 +20.7 +25.1
21 22.02 С 5 н/о н/о +20.4 +16.6 79 +23 +23 комфорт 1015.5 1004.9 +20.0 +25.1
00 23.02 С 5 н/о н/о +20.5 +16.9 80 +24 +24 комфорт 1015.6 1005.0 +20.0 +25.1
03 23.02 С 5 >70 км 10/10 300 м
[St]
+20.3 +16.9 81 +23 +23 комфорт 1015.3 1004.7 +20.0 +25.1
06 23.02 С 3 >70 км 10/10 300 м
[St]
+19.9 +17.3 85 +23 +23 комфорт 1016.5 1005.8 +19.8
09 23.02 С 5 >70 км 9/9 600 м
[Sc]
+24.5 +17.3 64 +28 +29 душно 1016.4 1005.9 +19.8 +24.5
12 23.02 СЗ 5 >70 км ясно +26.4 +17.0 56 +30 +40 душно 1013.8 1003.4 +19.8 +27.6
15 23.02 СЗ 6 н/о н/о +25.1 +17.1 61 +29 +29 душно 1011.9 1001.5 +24.8 +27.6
18 23.02 З 3 н/о н/о +22.2 +16.5 70 +26 +26 душно 1012.4 1001.9 +22.2 +27.6
21 23.02 З 3 н/о н/о +19.8 +16.4 81 +22 +22 комфорт 1013.0 1002.4 +19.8 +27.6
00 24.02 З 3 н/о н/о +18.9 +16.3 85 +21 +21 комфорт 1012.9 1002.2 +18.9 +27.6
03 24.02 З 1 н/о н/о +18.2 +16.5 90 +20 +20 1011.7 1001.0 +18.0 +27.6

 

Местоположение метеостанции Аэропорт Walvis Bay (Намибия): широта -22.98 долгота 14.65 высота над уровнем моря 88 м.

В архиве по умолчанию представлена погода в Аэропорту Walvis Bay за последнюю неделю. Архивные данные за месяц целиком и за предыдущие месяцы, начиная с января 2011 года, Вы можете получить, выбрав интересующий диапазон дат из раскрывающегося списка и нажав кнопку "Ввод!".


*Определитесь, кто Вы:
робот инопланетянин человек

Внимание! Время в таблицах - всемирное. Для получения местного времени необходимо прибавить поправку, которая равна 2 ч.

Смотрите также архив погоды в соседних городах и на ближайших метеорологических станциях:

Погода в Виндхуке (Намибия) (256 км)
Погода в Виндхук аэропорту (Намибия) (295 км)
Погода в Очиваронго (Намибия) (348 км)
Погода в Аэропорту Eros (Намибия) (356 км)
Погода в Людерице (Намибия) (409 км)
Погода в Окаукуечо (Намибия) (432 км)
Погода в Гобабисе (Намибия) (447 км)
Погода в Хрутфонтейне (Намибия) (520 км)
Погода в Китмансхупе (Намибия) (528 км)
Погода в Ондангва аэропорту (Намибия) (579 км)

Пояснения к столбцам:

Ветер - указаны скорость ветра в м/с - средняя за 10 мин, порывы в срок и между сроками (в фигурных скобках) и направление, откуда дует ветер: С - северный, СВ - северо-восточный, В - восточный, ЮВ - юго-восточный, Ю - южный, ЮЗ - юго-западный, З - западный, СЗ - северо-западный.
Видимость - горизонтальная дальность видимости в метрах или километрах. При видимости от 1 до 10 км при отсутствии осадков обычно наблюдается дымка, при ухудшении видимости до 1 км и менее - туман. В сухую погоду видимость может ухудшаться дымом, пылью или мглою.
Явления - указаны атмосферные явления, наблюдавшиеся в срок или в последний час перед сроком; фигурными скобками обозначены явления, наблюдавшиеся между сроками (за 1-3 часа до срока); квадратными скобками обозначены град или гололедные отложения с указанием их диаметра в мм.
Облачность - указаны через наклонную черту общая и нижняя облачность в баллах и высота нижней границы облаков в метрах; квадратными скобками обозначены формы облаков: Ci - перистые, Cs - перисто-слоистые, Cc - перисто-кучевые, Ac - высококучевые, As - высокослоистые, Sc - слоисто-кучевые, Ns - слоисто-дождевые, Cu - кучевые, Cb - кучево-дождевые. Подробнее классификацию облаков см. в Атласе облаков (PDF).
T - Температура воздуха - температура, измеренная на высоте 2 м над землей.
Td - Температура точки росы - температура, при понижении до которой содержащийся в воздухе водяной пар достигнет насыщения.
f - Относительная влажность воздуха - влажноcть воздуха, измеренная на высоте 2 м над землей.
Te - Эффективная температура - температура, которую ощущает одетый по сезону человек в тени. Характеристика душности погоды. При расчете учитывается влияние влажности воздуха и скорости ветра на теплоощущения человека.
Tes - Эффективная температура на солнце - температура, которую ощущает человек, с поправкой на солнечный нагрев. Характеристика знойности погоды. Зависит от высоты солнца над горизонтом, облачности и скорости ветра. Ночью, в пасмурную погоду, а также при ветре 12 м/с и более поправка равна нулю.
P - Атмосферное давление - приведенное к уровню моря атмосферное давление.
Po - Атмосферное давление - измеренное на уровне метеостанции атмосферное давление.
Tmin - Минимальная температура - минимум температуры воздуха на высоте 2 м над землей.
Tmax - Максимальная температура - максимум температуры воздуха на высоте 2 м над землей.
R - Количество осадков - Количество выпавших осадков за период времени, мм. При наведении курсора мыши на число - период времени, за который выпало указанное количество осадков.
R24 - Количество осадков - Количество выпавших осадков за 24 часа, мм.
S - Снежный покров - Высота снежного покрова, см. При наведении курсора мыши на число - состояние снежного покрова и степень покрытия местности в баллах.